• In Sweden
  • List of Countries
  • For 7 days
  • Water Temperature
  • Satellite Maps
  • Weather Map
  • Weather Widgets
  • user-avatar
    Login

    Hourly Weather Kranevo

    Today, 24 September, Monday

    Time Temperature Precipitation Wind Pressure Humidity
    00:00 +19°C° 0 mm 3 mps 759 mmHg 90%
    01:00 +19°C° 0 mm 3 mps 758 mmHg 92%
    02:00 +19°C° 0 mm 3 mps 757 mmHg 92%
    03:00 +19°C° 0 mm 3 mps 757 mmHg 93%
    04:00 +19°C° 0 mm 3 mps 756 mmHg 93%
    05:00 +20°C° 0 mm 4 mps 756 mmHg 94%
    06:00 +21°C° 0 mm 4 mps 756 mmHg 87%
    07:00 +22°C° 0 mm 5 mps 755 mmHg 81%
    08:00 +23°C° 0 mm 5 mps 755 mmHg 74%
    09:00 +26°C° 0 mm 6 mps 755 mmHg 64%
    10:00 +28°C° 0 mm 6 mps 754 mmHg 54%
    11:00 +30°C° 0 mm 6 mps 754 mmHg 45%
    12:00 +32°C° 0 mm 6 mps 753 mmHg 42%
    13:00 +33°C° 0 mm 6 mps 753 mmHg 39%
    14:00 +33°C° 0 mm 6 mps 752 mmHg 36%
    15:00 +33°C° 0 mm 6 mps 752 mmHg 38%
    16:00 +32°C° 0 mm 6 mps 752 mmHg 40%
    17:00 +30°C° 0 mm 5 mps 752 mmHg 41%
    18:00 +27°C° 0 mm 7 mps 753 mmHg 47%
    19:00 +23°C° 0 mm 8 mps 755 mmHg 53%
    20:00 +19°C° 0 mm 10 mps 756 mmHg 60%
    21:00 +18°C° 0.1 mm 10 mps 757 mmHg 63%
    22:00 +16°C° 0.1 mm 10 mps 758 mmHg 67%
    23:00 +14°C° 0.1 mm 10 mps 759 mmHg 71%

    Tomorrow, 25 September, Tuesday

    Time Temperature Precipitation Wind Pressure Humidity
    00:00 +13°C° 0.4 mm 9 mps 760 mmHg 71%
    01:00 +13°C° 0.4 mm 8 mps 760 mmHg 72%
    02:00 +12°C° 0.4 mm 7 mps 761 mmHg 72%
    03:00 +13°C° 0.1 mm 6 mps 761 mmHg 70%
    04:00 +13°C° 0.1 mm 6 mps 761 mmHg 68%
    05:00 +13°C° 0.1 mm 5 mps 762 mmHg 66%
    06:00 +13°C° 0 mm 5 mps 762 mmHg 65%
    07:00 +13°C° 0 mm 5 mps 763 mmHg 64%
    08:00 +13°C° 0 mm 4 mps 764 mmHg 62%
    09:00 +14°C° 0 mm 5 mps 764 mmHg 56%
    10:00 +15°C° 0 mm 5 mps 764 mmHg 49%
    11:00 +16°C° 0 mm 5 mps 764 mmHg 43%
    12:00 +16°C° 0 mm 5 mps 764 mmHg 41%
    13:00 +17°C° 0 mm 5 mps 764 mmHg 39%
    14:00 +17°C° 0 mm 5 mps 764 mmHg 38%
    15:00 +17°C° 0 mm 5 mps 764 mmHg 38%
    16:00 +16°C° 0 mm 5 mps 764 mmHg 37%
    17:00 +16°C° 0 mm 5 mps 764 mmHg 37%
    18:00 +15°C° 0 mm 5 mps 765 mmHg 38%
    19:00 +14°C° 0 mm 5 mps 766 mmHg 39%
    20:00 +13°C° 0 mm 5 mps 766 mmHg 40%
    21:00 +13°C° 0 mm 5 mps 767 mmHg 41%
    22:00 +11°C° 0 mm 6 mps 767 mmHg 41%
    23:00 +11°C° 0 mm 6 mps 767 mmHg 41%

    Day after tomorrow, 26 September, Wednesday

    Time Temperature Precipitation Wind Pressure Humidity
    00:00 +10°C° 0 mm 6 mps 768 mmHg 43%
    01:00 +10°C° 0 mm 6 mps 768 mmHg 45%
    02:00 +9°C° 0 mm 7 mps 768 mmHg 47%
    03:00 +9°C° 0 mm 7 mps 768 mmHg 51%
    04:00 +8°C° 0 mm 7 mps 768 mmHg 54%
    05:00 +8°C° 0 mm 7 mps 769 mmHg 58%
    06:00 +9°C° 0 mm 8 mps 769 mmHg 56%
    07:00 +9°C° 0 mm 8 mps 769 mmHg 55%
    08:00 +10°C° 0 mm 9 mps 769 mmHg 53%
    09:00 +11°C° 0 mm 9 mps 769 mmHg 49%
    10:00 +12°C° 0 mm 9 mps 770 mmHg 44%
    11:00 +15°C° 0 mm 9 mps 770 mmHg 39%
    12:00 +15°C° 0 mm 9 mps 770 mmHg 37%
    13:00 +16°C° 0 mm 9 mps 769 mmHg 35%
    14:00 +16°C° 0 mm 9 mps 769 mmHg 33%
    15:00 +16°C° 0 mm 9 mps 769 mmHg 34%
    16:00 +15°C° 0 mm 8 mps 769 mmHg 34%
    17:00 +15°C° 0 mm 8 mps 769 mmHg 35%
    18:00 +13°C° 0 mm 8 mps 769 mmHg 37%
    19:00 +12°C° 0 mm 7 mps 769 mmHg 40%
    20:00 +10°C° 0 mm 7 mps 770 mmHg 42%
    21:00 +10°C° 0 mm 7 mps 770 mmHg 44%
    22:00 +9°C° 0 mm 7 mps 770 mmHg 45%
    23:00 +9°C° 0 mm 6 mps 770 mmHg 46%

    27 September, Thursday

    Time Temperature Precipitation Wind Pressure Humidity
    00:00 +8°C° 0 mm 6 mps 770 mmHg 47%
    01:00 +8°C° 0 mm 6 mps 769 mmHg 47%
    02:00 +7°C° 0 mm 6 mps 769 mmHg 48%
    03:00 +7°C° 0 mm 6 mps 769 mmHg 48%
    04:00 +7°C° 0 mm 6 mps 769 mmHg 49%
    05:00 +5°C° 0 mm 6 mps 769 mmHg 50%
    06:00 +7°C° 0 mm 6 mps 769 mmHg 47%
    07:00 +8°C° 0 mm 6 mps 769 mmHg 44%
    08:00 +9°C° 0 mm 6 mps 769 mmHg 42%
    09:00 +11°C° 0 mm 6 mps 768 mmHg 39%
    10:00 +14°C° 0 mm 6 mps 768 mmHg 35%
    11:00 +15°C° 0 mm 6 mps 768 mmHg 32%
    12:00 +16°C° 0 mm 5 mps 768 mmHg 31%
    13:00 +17°C° 0 mm 5 mps 767 mmHg 29%
    14:00 +19°C° 0 mm 5 mps 767 mmHg 27%
    15:00 +17°C° 0 mm 5 mps 766 mmHg 28%
    16:00 +18°C° 0 mm 4 mps 766 mmHg 29%
    17:00 +18°C° 0 mm 4 mps 766 mmHg 30%
    18:00 +15°C° 0 mm 4 mps 766 mmHg 35%
    19:00 +14°C° 0 mm 3 mps 766 mmHg 41%
    20:00 +12°C° 0 mm 3 mps 766 mmHg 46%
    21:00 +12°C° 0 mm 3 mps 765 mmHg 47%
    22:00 +12°C° 0 mm 3 mps 765 mmHg 49%
    23:00 +13°C° 0 mm 2 mps 765 mmHg 50%

    28 September, Friday

    Time Temperature Precipitation Wind Pressure Humidity
    00:00 +11°C° 0 mm 3 mps 765 mmHg 49%
    01:00 +11°C° 0 mm 3 mps 765 mmHg 48%
    02:00 +11°C° 0 mm 3 mps 764 mmHg 47%
    03:00 +11°C° 0 mm 3 mps 764 mmHg 46%
    04:00 +11°C° 0 mm 3 mps 764 mmHg 45%
    05:00 +11°C° 0 mm 3 mps 763 mmHg 43%
    06:00 +12°C° 0 mm 3 mps 763 mmHg 40%
    07:00 +13°C° 0 mm 3 mps 763 mmHg 37%
    08:00 +14°C° 0 mm 3 mps 763 mmHg 34%
    09:00 +17°C° 0 mm 3 mps 763 mmHg 34%
    10:00 +19°C° 0 mm 3 mps 763 mmHg 34%
    11:00 +21°C° 0 mm 4 mps 763 mmHg 34%
    12:00 +21°C° 0 mm 4 mps 762 mmHg 35%
    13:00 +22°C° 0 mm 4 mps 762 mmHg 35%
    14:00 +24°C° 0 mm 3 mps 761 mmHg 35%
    15:00 +22°C° 0 mm 3 mps 761 mmHg 39%
    16:00 +21°C° 0 mm 3 mps 760 mmHg 42%
    17:00 +21°C° 0 mm 3 mps 760 mmHg 46%
    18:00 +19°C° 0 mm 3 mps 760 mmHg 53%
    19:00 +18°C° 0 mm 3 mps 760 mmHg 60%
    20:00 +16°C° 0 mm 2 mps 760 mmHg 67%
    21:00 +16°C° 0 mm 2 mps 759 mmHg 69%
    22:00 +16°C° 0 mm 2 mps 759 mmHg 71%
    23:00 +15°C° 0 mm 1 mps 759 mmHg 73%

    29 September, Saturday

    Time Temperature Precipitation Wind Pressure Humidity
    00:00 +15°C° 0 mm 1 mps 758 mmHg 74%
    01:00 +15°C° 0 mm 1 mps 758 mmHg 76%
    02:00 +14°C° 0 mm 1 mps 758 mmHg 77%
    03:00 +14°C° 0 mm 1 mps 757 mmHg 78%
    04:00 +14°C° 0 mm 1 mps 757 mmHg 79%
    05:00 +14°C° 0 mm 1 mps 757 mmHg 81%
    06:00 +15°C° 0 mm 1 mps 757 mmHg 75%
    07:00 +16°C° 0 mm 1 mps 757 mmHg 70%
    08:00 +18°C° 0 mm 1 mps 757 mmHg 65%
    09:00 +20°C° 0 mm 1 mps 757 mmHg 58%
    10:00 +21°C° 0 mm 2 mps 757 mmHg 51%
    11:00 +23°C° 0 mm 2 mps 756 mmHg 45%
    12:00 +24°C° 0 mm 2 mps 756 mmHg 42%
    13:00 +25°C° 0 mm 2 mps 755 mmHg 40%
    14:00 +25°C° 0 mm 2 mps 755 mmHg 37%
    15:00 +25°C° 0 mm 3 mps 755 mmHg 41%
    16:00 +24°C° 0 mm 3 mps 755 mmHg 45%
    17:00 +22°C° 0 mm 3 mps 755 mmHg 49%
    18:00 +21°C° 0 mm 3 mps 755 mmHg 57%
    19:00 +19°C° 0 mm 3 mps 755 mmHg 66%
    20:00 +18°C° 0 mm 2 mps 755 mmHg 75%
    21:00 +18°C° 0 mm 2 mps 756 mmHg 77%
    22:00 +17°C° 0 mm 2 mps 756 mmHg 80%
    23:00 +18°C° 0 mm 1 mps 756 mmHg 82%
    Show more